Weather History for EGPK - January, 2014

Change the Weather History Date:

Saturday, January 11, 2014

  Actual Average Record
Temperature  
Mean Temperature 38 °F -  
Max Temperature 42 °F 44 °F 55 °F (1998)
Min Temperature 33 °F 34 °F 23 °F (2003)
Degree Days  
Heating Degree Days 28    
Moisture  
Dew Point 35 °F    
Average Humidity 83    
Maximum Humidity 93    
Minimum Humidity 76    
Precipitation  
Precipitation 0.00 in - - ()
Sea Level Pressure  
Sea Level Pressure 30.00 in    
Wind  
Wind Speed 9 mph ()    
Max Wind Speed 17 mph    
Max Gust Speed -    
Visibility 6.2 miles    
Events Rain    
Averages and records for this station are not official NWS values.
T = Trace of Precipitation, MM = Missing Value Source: Averaged Metar Reports

Daily Weather History Graph

Daily Weather History Graph

Search for Another Location

Airport or City:

Trip Planner

Search our weather history database for the weather conditions in past years. The results will help you decide how hot, cold, wet, or windy it might be!

Date:

Astronomy

Jan. 11, 2014 Rise Set
Actual Time 8:40 AM GMT 4:12 PM GMT
Civil Twilight 7:56 AM GMT 4:56 PM GMT
Nautical Twilight 7:09 AM GMT 5:43 PM GMT
Astronomical Twilight 6:24 AM GMT 6:28 PM GMT
Moon 12:56 PM GMT (1/11) 4:20 AM GMT (1/11)
Length of Visible Light 9h 00m
Length of Day
7h 31m
Waxing Gibbous, 81% of the Moon is Illuminated
Jan 11
Waxing Gibbous
Jan 16
Full
Jan 24
Last Quarter
Jan 30
New
Feb 6
First Quarter

Hourly Weather History & Observations

Time (GMT) Temp. Windchill Dew Point Humidity Pressure Visibility Wind Dir Wind Speed Gust Speed Precip Events Conditions
12:50 AM 39.2 °F 31.6 °F 35.6 °F 87% 29.80 in 6.2 mi WNW 12.7 mph - N/A   Partly Cloudy
1:50 AM 37.4 °F - 33.8 °F 87% 29.80 in 6.2 mi Calm Calm - N/A   Partly Cloudy
2:50 AM 37.4 °F 33.8 °F 33.8 °F 87% 29.83 in 6.2 mi SSW 4.6 mph - N/A   Partly Cloudy
3:50 AM 39.2 °F 34.2 °F 35.6 °F 87% 29.83 in 6.2 mi WSW 6.9 mph - N/A   Partly Cloudy
4:50 AM 39.2 °F 33.0 °F 33.8 °F 81% 29.86 in 6.2 mi West 9.2 mph - N/A   Partly Cloudy
5:50 AM 39.2 °F 33.0 °F 35.6 °F 87% 29.86 in 6.2 mi WSW 9.2 mph - N/A   Partly Cloudy
6:20 AM 41.0 °F 36.4 °F 37.4 °F 87% 29.86 in 6.2 mi WSW 6.9 mph - N/A   Partly Cloudy
6:50 AM 39.2 °F 32.5 °F 35.6 °F 87% 29.89 in 6.2 mi WSW 10.4 mph - N/A Rain Light Rain
7:20 AM 41.0 °F 32.8 °F 35.6 °F 81% 29.89 in 6.2 mi WSW 16.1 mph - N/A   Partly Cloudy
7:50 AM 41.0 °F 32.5 °F 35.6 °F 81% 29.92 in 6.2 mi West 17.3 mph - N/A Rain Light Rain
8:20 AM 41.0 °F 32.5 °F 33.8 °F 76% 29.92 in 6.2 mi West 17.3 mph - N/A Rain Light Rain Showers
8:50 AM 37.4 °F - 33.8 °F 87% 29.95 in 6.2 mi Variable 2.3 mph - N/A   Partly Cloudy
9:20 AM 37.4 °F 31.4 °F 33.8 °F 87% 29.95 in 6.2 mi WSW 8.1 mph - N/A   Partly Cloudy
9:50 AM 39.2 °F 32.5 °F 35.6 °F 87% 29.98 in 6.2 mi WSW 10.4 mph - N/A   Partly Cloudy
10:20 AM 41.0 °F 33.9 °F 35.6 °F 81% 29.98 in 6.2 mi WSW 12.7 mph - N/A   Partly Cloudy
10:50 AM 41.0 °F 33.9 °F 35.6 °F 81% 29.98 in 6.2 mi WSW 12.7 mph - N/A   Partly Cloudy
11:20 AM 42.8 °F 35.8 °F 35.6 °F 76% 30.01 in 6.2 mi WSW 13.8 mph - N/A   Partly Cloudy
11:50 AM 42.8 °F 37.0 °F 35.6 °F 76% 30.01 in 6.2 mi SW 10.4 mph - N/A   Scattered Clouds
12:20 PM 42.8 °F 36.2 °F 37.4 °F 81% 30.01 in 6.2 mi WSW 12.7 mph - N/A   Scattered Clouds
12:50 PM 42.8 °F 35.1 °F 37.4 °F 81% 30.01 in 6.2 mi WSW 16.1 mph - N/A   Scattered Clouds
1:20 PM 42.8 °F 34.8 °F 37.4 °F 81% 30.04 in 6.2 mi WSW 17.3 mph - N/A   Scattered Clouds
1:50 PM 42.8 °F 35.1 °F 35.6 °F 76% 30.04 in 6.2 mi WSW 16.1 mph - N/A   Scattered Clouds
2:20 PM 42.8 °F 37.0 °F 35.6 °F 76% 30.04 in 6.2 mi West 10.4 mph - N/A   Scattered Clouds
2:50 PM 42.8 °F 37.0 °F 35.6 °F 76% 30.04 in 6.2 mi WSW 10.4 mph - N/A   Partly Cloudy
3:20 PM 42.8 °F 36.6 °F 37.4 °F 81% 30.06 in 6.2 mi WSW 11.5 mph - N/A   Partly Cloudy
3:50 PM 42.8 °F 36.6 °F 35.6 °F 76% 30.06 in 6.2 mi West 11.5 mph - N/A   Partly Cloudy
4:20 PM 41.0 °F 34.3 °F 35.6 °F 81% 30.06 in 6.2 mi West 11.5 mph - N/A   Partly Cloudy
4:50 PM 41.0 °F 33.5 °F 35.6 °F 81% 30.06 in 6.2 mi West 13.8 mph - N/A   Partly Cloudy
5:20 PM 42.8 °F 36.6 °F 37.4 °F 81% 30.06 in 6.2 mi West 11.5 mph - N/A   Scattered Clouds
5:50 PM 42.8 °F 36.6 °F 37.4 °F 81% 30.09 in 6.2 mi West 11.5 mph - N/A   Scattered Clouds
6:20 PM 41.0 °F 35.2 °F 35.6 °F 81% 30.09 in 6.2 mi West 9.2 mph - N/A   Partly Cloudy
6:50 PM 41.0 °F 36.4 °F 35.6 °F 81% 30.09 in 6.2 mi West 6.9 mph - N/A   Partly Cloudy
7:20 PM 39.2 °F 35.0 °F 35.6 °F 87% 30.09 in 6.2 mi SW 5.8 mph - N/A   Partly Cloudy
7:50 PM 39.2 °F 35.9 °F 35.6 °F 87% 30.09 in 6.2 mi West 4.6 mph - N/A   Scattered Clouds
8:20 PM 37.4 °F 33.8 °F 33.8 °F 87% 30.12 in 6.2 mi South 4.6 mph - N/A   Scattered Clouds
8:50 PM 37.4 °F 34.9 °F 33.8 °F 87% 30.12 in 6.2 mi Variable 3.5 mph - N/A   Partly Cloudy
9:20 PM 37.4 °F 33.8 °F 35.6 °F 93% 30.12 in 6.2 mi SSW 4.6 mph - N/A   Partly Cloudy
9:50 PM 37.4 °F 34.9 °F 33.8 °F 87% 30.12 in 6.2 mi SSE 3.5 mph - N/A   Partly Cloudy
10:20 PM 35.6 °F 31.7 °F 33.8 °F 93% 30.12 in 6.2 mi SSE 4.6 mph - N/A   Partly Cloudy
10:50 PM 33.8 °F 28.6 °F 32.0 °F 93% 30.12 in 6.2 mi ESE 5.8 mph - N/A   Partly Cloudy
11:20 PM 33.8 °F 28.6 °F 30.2 °F 87% 30.12 in 6.2 mi East 5.8 mph - N/A   Partly Cloudy
11:50 PM 33.8 °F 29.6 °F 30.2 °F 87% 30.12 in 6.2 mi SE 4.6 mph - N/A   Partly Cloudy